Location: Amsterdam
(30.7274°N, 84.4357°W)
Time: 20:24:27
(UTC+00:00)

Altair - Pass Details

Date: 15 August 2024
Orbit: 1501 x 1682 km, 47.2° (Epoch: 07 September)

Event Time Altitude Azimuth Distance (km) Brightness Sun altitude
Rises 20:35:58 0° 304° (WNW) 4,827 10.5 46.6°
Reaches altitude 10° 20:39:36 10° 313° (NW) 3,812 10.1 45.9°
Maximum altitude 20:48:07 34° 16° (NNE) 2,366 8.7 44.1°
Drops below altitude 10° 20:56:21 10° 78° (ENE) 3,689 9.2 42.3°
Sets 20:59:47 0° 88° (E) 4,653 9.6 41.6°
